{"data":{"norad_id":64004,"epoch":"2026-05-24T19:07:05.827008Z","epoch_age_seconds":86437,"freshness":"FRESH","line1":"1 64004U 25101L   26144.79659522  .00014600  00000+0  53884-3 0  9996","line2":"2 64004  43.0012 288.2520 0002594 262.5669  97.4888 15.27590916 58696","mean_motion":15.27590916,"eccentricity":0.0002594,"inclination_deg":43.0012,"raan_deg":288.252,"arg_perigee_deg":262.5669,"mean_anomaly_deg":97.4888,"bstar":0.00053884,"rev_number":5869,"period_min":94.266075093628,"perigee_km":481.23662660878,"apogee_km":484.79619299779,"semimajor_km":6861.1534098033,"source":"CELESTRAK","updated_at":"2026-05-25T13:38:20.219654Z"}}